owner,sensor,date,latitude,longitude,air_pressure(mBar),qcFlag 
WAVCIS,ioos:station:WAVCIS:CSI15:1,2008-11-01T00:00:00Z,28.8332,-90.8320,1025.2,11111222 
WAVCIS,ioos:station:WAVCIS:CSI15:1,2008-11-01T01:00:00Z,28.8332,-90.8320,1025.31,11111222 
WAVCIS,ioos:station:WAVCIS:CSI15:1,2008-11-01T02:00:00Z,28.8332,-90.8320,1025.32,11111222 
WAVCIS,ioos:station:WAVCIS:CSI15:1,2008-11-01T03:00:00Z,28.8332,-90.8320,1025.38,11111222 
WAVCIS,ioos:station:WAVCIS:CSI15:1,2008-11-01T04:00:00Z,28.8332,-90.8320,1025.26,11111222 
WAVCIS,ioos:station:WAVCIS:CSI15:1,2008-11-01T05:00:00Z,28.8332,-90.8320,1025.08,11111222 
WAVCIS,ioos:station:WAVCIS:CSI15:1,2008-11-01T06:00:00Z,28.8332,-90.8320,1024.52,11111222 
WAVCIS,ioos:station:WAVCIS:CSI15:1,2008-11-01T07:00:00Z,28.8332,-90.8320,1024.42,11111222 
WAVCIS,ioos:station:WAVCIS:CSI15:1,2008-11-01T08:00:00Z,28.8332,-90.8320,1024.01,11111222 
WAVCIS,ioos:station:WAVCIS:CSI15:1,2008-11-01T09:00:00Z,28.8332,-90.8320,1023.61,11111222 
WAVCIS,ioos:station:WAVCIS:CSI15:1,2008-11-01T10:00:00Z,28.8332,-90.8320,1023.3,11111222 
WAVCIS,ioos:station:WAVCIS:CSI15:1,2008-11-01T11:00:00Z,28.8332,-90.8320,1023.39,11111222 
WAVCIS,ioos:station:WAVCIS:CSI15:1,2008-11-01T12:00:00Z,28.8332,-90.8320,1023.65,11111222 
WAVCIS,ioos:station:WAVCIS:CSI15:1,2008-11-01T13:00:00Z,28.8332,-90.8320,1023.94,11111222 
WAVCIS,ioos:station:WAVCIS:CSI15:1,2008-11-01T14:00:00Z,28.8332,-90.8320,1024.41,11111222 
WAVCIS,ioos:station:WAVCIS:CSI15:1,2008-11-01T15:00:00Z,28.8332,-90.8320,1024.61,11111222 
WAVCIS,ioos:station:WAVCIS:CSI15:1,2008-11-01T16:00:00Z,28.8332,-90.8320,1024.6,11111222 
WAVCIS,ioos:station:WAVCIS:CSI15:1,2008-11-01T17:00:00Z,28.8332,-90.8320,1024.27,11111222 
WAVCIS,ioos:station:WAVCIS:CSI15:1,2008-11-01T18:00:00Z,28.8332,-90.8320,1023.47,11111222 
WAVCIS,ioos:station:WAVCIS:CSI15:1,2008-11-01T19:00:00Z,28.8332,-90.8320,1022.31,11111222 
WAVCIS,ioos:station:WAVCIS:CSI15:1,2008-11-01T20:00:00Z,28.8332,-90.8320,1021.56,11111222 
WAVCIS,ioos:station:WAVCIS:CSI15:1,2008-11-01T21:00:00Z,28.8332,-90.8320,1021.38,11111222 
WAVCIS,ioos:station:WAVCIS:CSI15:1,2008-11-01T22:00:00Z,28.8332,-90.8320,1021.41,11111222 
WAVCIS,ioos:station:WAVCIS:CSI15:1,2008-11-01T23:00:00Z,28.8332,-90.8320,1021.28,11111222 
WAVCIS,ioos:station:WAVCIS:CSI15:1,2008-11-02T00:00:00Z,28.8332,-90.8320,1021.41,11111222 
WAVCIS,ioos:station:WAVCIS:CSI15:1,2008-11-02T01:00:00Z,28.8332,-90.8320,1021.81,11111222 
WAVCIS,ioos:station:WAVCIS:CSI15:1,2008-11-02T02:00:00Z,28.8332,-90.8320,1022.05,11111222 
WAVCIS,ioos:station:WAVCIS:CSI15:1,2008-11-02T03:00:00Z,28.8332,-90.8320,1022.15,11111222 
WAVCIS,ioos:station:WAVCIS:CSI15:1,2008-11-02T04:00:00Z,28.8332,-90.8320,1022.04,11111222 
WAVCIS,ioos:station:WAVCIS:CSI15:1,2008-11-02T05:00:00Z,28.8332,-90.8320,1021.67,11111222 
WAVCIS,ioos:station:WAVCIS:CSI15:1,2008-11-02T06:00:00Z,28.8332,-90.8320,1021.05,11111222 
WAVCIS,ioos:station:WAVCIS:CSI15:1,2008-11-02T07:00:00Z,28.8332,-90.8320,1020.74,11111222 
WAVCIS,ioos:station:WAVCIS:CSI15:1,2008-11-02T08:00:00Z,28.8332,-90.8320,1020.32,11111222 
WAVCIS,ioos:station:WAVCIS:CSI15:1,2008-11-02T09:00:00Z,28.8332,-90.8320,1019.93,11111222 
WAVCIS,ioos:station:WAVCIS:CSI15:1,2008-11-02T10:00:00Z,28.8332,-90.8320,1020.03,11111222 
WAVCIS,ioos:station:WAVCIS:CSI15:1,2008-11-02T11:00:00Z,28.8332,-90.8320,1020.04,11111222 
WAVCIS,ioos:station:WAVCIS:CSI15:1,2008-11-02T12:00:00Z,28.8332,-90.8320,1020.16,11111222 
WAVCIS,ioos:station:WAVCIS:CSI15:1,2008-11-02T13:00:00Z,28.8332,-90.8320,1020.57,11111222 
WAVCIS,ioos:station:WAVCIS:CSI15:1,2008-11-02T14:00:00Z,28.8332,-90.8320,1020.94,11111222 
WAVCIS,ioos:station:WAVCIS:CSI15:1,2008-11-02T15:00:00Z,28.8332,-90.8320,1021.33,11111222 
WAVCIS,ioos:station:WAVCIS:CSI15:1,2008-11-02T16:00:00Z,28.8332,-90.8320,1021.49,11111222 
WAVCIS,ioos:station:WAVCIS:CSI15:1,2008-11-02T17:00:00Z,28.8332,-90.8320,1021.35,11111222 
WAVCIS,ioos:station:WAVCIS:CSI15:1,2008-11-02T18:00:00Z,28.8332,-90.8320,1020.63,11111222 
WAVCIS,ioos:station:WAVCIS:CSI15:1,2008-11-02T19:00:00Z,28.8332,-90.8320,1019.77,11111222 
WAVCIS,ioos:station:WAVCIS:CSI15:1,2008-11-02T20:00:00Z,28.8332,-90.8320,1019.18,11111222 
WAVCIS,ioos:station:WAVCIS:CSI15:1,2008-11-02T21:00:00Z,28.8332,-90.8320,1018.85,11111222 
WAVCIS,ioos:station:WAVCIS:CSI15:1,2008-11-02T22:00:00Z,28.8332,-90.8320,1018.76,11111222 
WAVCIS,ioos:station:WAVCIS:CSI15:1,2008-11-02T23:00:00Z,28.8332,-90.8320,1018.61,11111222 
WAVCIS,ioos:station:WAVCIS:CSI15:1,2008-11-03T00:00:00Z,28.8332,-90.8320,1018.92,11111222 
WAVCIS,ioos:station:WAVCIS:CSI15:1,2008-11-03T01:00:00Z,28.8332,-90.8320,1019.29,11111222 
WAVCIS,ioos:station:WAVCIS:CSI15:1,2008-11-03T02:00:00Z,28.8332,-90.8320,1019.53,11111222 
WAVCIS,ioos:station:WAVCIS:CSI15:1,2008-11-03T03:00:00Z,28.8332,-90.8320,1019.72,11111222 
WAVCIS,ioos:station:WAVCIS:CSI15:1,2008-11-03T04:00:00Z,28.8332,-90.8320,1019.4,11111222 
WAVCIS,ioos:station:WAVCIS:CSI15:1,2008-11-03T05:00:00Z,28.8332,-90.8320,1018.87,11111222 
WAVCIS,ioos:station:WAVCIS:CSI15:1,2008-11-03T06:00:00Z,28.8332,-90.8320,1018.49,11111222 
WAVCIS,ioos:station:WAVCIS:CSI15:1,2008-11-03T07:00:00Z,28.8332,-90.8320,1018.27,11111222 
WAVCIS,ioos:station:WAVCIS:CSI15:1,2008-11-03T08:00:00Z,28.8332,-90.8320,1018.17,11111222 
WAVCIS,ioos:station:WAVCIS:CSI15:1,2008-11-03T09:00:00Z,28.8332,-90.8320,1018.11,11111222 
WAVCIS,ioos:station:WAVCIS:CSI15:1,2008-11-03T10:00:00Z,28.8332,-90.8320,1017.99,11111222 
WAVCIS,ioos:station:WAVCIS:CSI15:1,2008-11-03T11:00:00Z,28.8332,-90.8320,1018.33,11111222 
WAVCIS,ioos:station:WAVCIS:CSI15:1,2008-11-03T12:00:00Z,28.8332,-90.8320,1018.6,11111222 
WAVCIS,ioos:station:WAVCIS:CSI15:1,2008-11-03T13:00:00Z,28.8332,-90.8320,1018.83,11111222 
WAVCIS,ioos:station:WAVCIS:CSI15:1,2008-11-03T14:00:00Z,28.8332,-90.8320,1019.03,11111222 
WAVCIS,ioos:station:WAVCIS:CSI15:1,2008-11-03T15:00:00Z,28.8332,-90.8320,1019.23,11111222 
WAVCIS,ioos:station:WAVCIS:CSI15:1,2008-11-03T16:00:00Z,28.8332,-90.8320,1019.45,11111222 
WAVCIS,ioos:station:WAVCIS:CSI15:1,2008-11-03T17:00:00Z,28.8332,-90.8320,1019.03,11111222 
WAVCIS,ioos:station:WAVCIS:CSI15:1,2008-11-03T18:00:00Z,28.8332,-90.8320,1018.19,11111222 
WAVCIS,ioos:station:WAVCIS:CSI15:1,2008-11-03T19:00:00Z,28.8332,-90.8320,1017.35,11111222 
WAVCIS,ioos:station:WAVCIS:CSI15:1,2008-11-03T20:00:00Z,28.8332,-90.8320,1017.05,11111222 
WAVCIS,ioos:station:WAVCIS:CSI15:1,2008-11-03T21:00:00Z,28.8332,-90.8320,1016.79,11111222 
WAVCIS,ioos:station:WAVCIS:CSI15:1,2008-11-03T22:00:00Z,28.8332,-90.8320,1016.83,11111222 
WAVCIS,ioos:station:WAVCIS:CSI15:1,2008-11-03T23:00:00Z,28.8332,-90.8320,1016.68,11111222 
WAVCIS,ioos:station:WAVCIS:CSI15:1,2008-11-04T00:00:00Z,28.8332,-90.8320,1017.07,11111222 
WAVCIS,ioos:station:WAVCIS:CSI15:1,2008-11-04T01:00:00Z,28.8332,-90.8320,1017.47,11111222 
WAVCIS,ioos:station:WAVCIS:CSI15:1,2008-11-04T02:00:00Z,28.8332,-90.8320,1017.83,11111222 
WAVCIS,ioos:station:WAVCIS:CSI15:1,2008-11-04T03:00:00Z,28.8332,-90.8320,1017.99,11111222 
WAVCIS,ioos:station:WAVCIS:CSI15:1,2008-11-04T04:00:00Z,28.8332,-90.8320,1017.63,11111222 
WAVCIS,ioos:station:WAVCIS:CSI15:1,2008-11-04T05:00:00Z,28.8332,-90.8320,1017.19,11111222 
WAVCIS,ioos:station:WAVCIS:CSI15:1,2008-11-04T06:00:00Z,28.8332,-90.8320,1017.02,11111222 
WAVCIS,ioos:station:WAVCIS:CSI15:1,2008-11-04T07:00:00Z,28.8332,-90.8320,1016.86,11111222 
WAVCIS,ioos:station:WAVCIS:CSI15:1,2008-11-04T08:00:00Z,28.8332,-90.8320,1016.37,11111222 
WAVCIS,ioos:station:WAVCIS:CSI15:1,2008-11-04T09:00:00Z,28.8332,-90.8320,1016.26,11111222 
WAVCIS,ioos:station:WAVCIS:CSI15:1,2008-11-04T10:00:00Z,28.8332,-90.8320,1016.2,11111222 
WAVCIS,ioos:station:WAVCIS:CSI15:1,2008-11-04T11:00:00Z,28.8332,-90.8320,1016.65,11111222 
WAVCIS,ioos:station:WAVCIS:CSI15:1,2008-11-04T12:00:00Z,28.8332,-90.8320,1016.88,11111222 
WAVCIS,ioos:station:WAVCIS:CSI15:1,2008-11-04T13:00:00Z,28.8332,-90.8320,1017.26,11111222 
WAVCIS,ioos:station:WAVCIS:CSI15:1,2008-11-04T14:00:00Z,28.8332,-90.8320,1017.51,11111222 
WAVCIS,ioos:station:WAVCIS:CSI15:1,2008-11-04T15:00:00Z,28.8332,-90.8320,1017.98,11111222 
WAVCIS,ioos:station:WAVCIS:CSI15:1,2008-11-04T16:00:00Z,28.8332,-90.8320,1018.04,11111222 
WAVCIS,ioos:station:WAVCIS:CSI15:1,2008-11-04T17:00:00Z,28.8332,-90.8320,1017.69,11111222 
WAVCIS,ioos:station:WAVCIS:CSI15:1,2008-11-04T18:00:00Z,28.8332,-90.8320,1016.94,11111222 
WAVCIS,ioos:station:WAVCIS:CSI15:1,2008-11-04T19:00:00Z,28.8332,-90.8320,1016.06,11111222 
WAVCIS,ioos:station:WAVCIS:CSI15:1,2008-11-04T20:00:00Z,28.8332,-90.8320,1015.33,11111222 
WAVCIS,ioos:station:WAVCIS:CSI15:1,2008-11-04T21:00:00Z,28.8332,-90.8320,1015.04,11111222 
WAVCIS,ioos:station:WAVCIS:CSI15:1,2008-11-04T22:00:00Z,28.8332,-90.8320,1015.01,11111222 
WAVCIS,ioos:station:WAVCIS:CSI15:1,2008-11-04T23:00:00Z,28.8332,-90.8320,1015.31,11111222 
WAVCIS,ioos:station:WAVCIS:CSI15:1,2008-11-05T00:00:00Z,28.8332,-90.8320,1015.63,11111222 
WAVCIS,ioos:station:WAVCIS:CSI15:1,2008-11-05T01:00:00Z,28.8332,-90.8320,1016.06,11111222 
WAVCIS,ioos:station:WAVCIS:CSI15:1,2008-11-05T02:00:00Z,28.8332,-90.8320,1016.36,11111222 
WAVCIS,ioos:station:WAVCIS:CSI15:1,2008-11-05T03:00:00Z,28.8332,-90.8320,1016.27,11111222 
WAVCIS,ioos:station:WAVCIS:CSI15:1,2008-11-05T04:00:00Z,28.8332,-90.8320,1016.2,11111222 
WAVCIS,ioos:station:WAVCIS:CSI15:1,2008-11-05T05:00:00Z,28.8332,-90.8320,1015.66,11111222 
WAVCIS,ioos:station:WAVCIS:CSI15:1,2008-11-05T06:00:00Z,28.8332,-90.8320,1015.26,11111222 
WAVCIS,ioos:station:WAVCIS:CSI15:1,2008-11-05T07:00:00Z,28.8332,-90.8320,1015.04,11111222 
WAVCIS,ioos:station:WAVCIS:CSI15:1,2008-11-05T08:00:00Z,28.8332,-90.8320,1014.68,11111222 
WAVCIS,ioos:station:WAVCIS:CSI15:1,2008-11-05T09:00:00Z,28.8332,-90.8320,1014.4,11111222 
WAVCIS,ioos:station:WAVCIS:CSI15:1,2008-11-05T10:00:00Z,28.8332,-90.8320,1014.34,11111222 
WAVCIS,ioos:station:WAVCIS:CSI15:1,2008-11-05T11:00:00Z,28.8332,-90.8320,1014.3,11111222 
WAVCIS,ioos:station:WAVCIS:CSI15:1,2008-11-05T12:00:00Z,28.8332,-90.8320,1014.62,11111222 
WAVCIS,ioos:station:WAVCIS:CSI15:1,2008-11-05T13:00:00Z,28.8332,-90.8320,1014.85,11111222 
WAVCIS,ioos:station:WAVCIS:CSI15:1,2008-11-05T14:00:00Z,28.8332,-90.8320,1015.37,11111222 
WAVCIS,ioos:station:WAVCIS:CSI15:1,2008-11-05T15:00:00Z,28.8332,-90.8320,1015.74,11111222 
WAVCIS,ioos:station:WAVCIS:CSI15:1,2008-11-05T16:00:00Z,28.8332,-90.8320,1015.91,11111222 
WAVCIS,ioos:station:WAVCIS:CSI15:1,2008-11-05T17:00:00Z,28.8332,-90.8320,1015.48,11111222 
WAVCIS,ioos:station:WAVCIS:CSI15:1,2008-11-05T18:00:00Z,28.8332,-90.8320,1014.69,11111222 
WAVCIS,ioos:station:WAVCIS:CSI15:1,2008-11-05T19:00:00Z,28.8332,-90.8320,1013.91,11111222 
WAVCIS,ioos:station:WAVCIS:CSI15:1,2008-11-05T20:00:00Z,28.8332,-90.8320,1013.57,11111222 
WAVCIS,ioos:station:WAVCIS:CSI15:1,2008-11-05T21:00:00Z,28.8332,-90.8320,1013.34,11111222 
WAVCIS,ioos:station:WAVCIS:CSI15:1,2008-11-05T22:00:00Z,28.8332,-90.8320,1013.17,11111222 
WAVCIS,ioos:station:WAVCIS:CSI15:1,2008-11-05T23:00:00Z,28.8332,-90.8320,1013.02,11111222 
WAVCIS,ioos:station:WAVCIS:CSI15:1,2008-11-06T00:00:00Z,28.8332,-90.8320,1013.08,11111222 
WAVCIS,ioos:station:WAVCIS:CSI15:1,2008-11-06T01:00:00Z,28.8332,-90.8320,1013.15,11111222 
WAVCIS,ioos:station:WAVCIS:CSI15:1,2008-11-06T02:00:00Z,28.8332,-90.8320,1013.31,11111222 
WAVCIS,ioos:station:WAVCIS:CSI15:1,2008-11-06T03:00:00Z,28.8332,-90.8320,1013.04,11111222 
WAVCIS,ioos:station:WAVCIS:CSI15:1,2008-11-06T04:00:00Z,28.8332,-90.8320,1012.89,11111222 
WAVCIS,ioos:station:WAVCIS:CSI15:1,2008-11-06T05:00:00Z,28.8332,-90.8320,1012.6,11111222 
WAVCIS,ioos:station:WAVCIS:CSI15:1,2008-11-06T06:00:00Z,28.8332,-90.8320,1012.19,11111222 
WAVCIS,ioos:station:WAVCIS:CSI15:1,2008-11-06T07:00:00Z,28.8332,-90.8320,1011.99,11111222 
WAVCIS,ioos:station:WAVCIS:CSI15:1,2008-11-06T08:00:00Z,28.8332,-90.8320,1011.63,11111222 
WAVCIS,ioos:station:WAVCIS:CSI15:1,2008-11-06T09:00:00Z,28.8332,-90.8320,1011.66,11111222 
WAVCIS,ioos:station:WAVCIS:CSI15:1,2008-11-06T10:00:00Z,28.8332,-90.8320,1011.83,11111222 
WAVCIS,ioos:station:WAVCIS:CSI15:1,2008-11-06T11:00:00Z,28.8332,-90.8320,1012.07,11111222 
WAVCIS,ioos:station:WAVCIS:CSI15:1,2008-11-06T12:00:00Z,28.8332,-90.8320,1012.58,11111222 
WAVCIS,ioos:station:WAVCIS:CSI15:1,2008-11-06T13:00:00Z,28.8332,-90.8320,1012.96,11111222 
WAVCIS,ioos:station:WAVCIS:CSI15:1,2008-11-06T14:00:00Z,28.8332,-90.8320,1013.56,11111222 
WAVCIS,ioos:station:WAVCIS:CSI15:1,2008-11-06T15:00:00Z,28.8332,-90.8320,1013.6,11111222 
WAVCIS,ioos:station:WAVCIS:CSI15:1,2008-11-06T16:00:00Z,28.8332,-90.8320,1013.9,11111222 
WAVCIS,ioos:station:WAVCIS:CSI15:1,2008-11-06T17:00:00Z,28.8332,-90.8320,1013.69,11111222 
WAVCIS,ioos:station:WAVCIS:CSI15:1,2008-11-06T18:00:00Z,28.8332,-90.8320,1013.0,11111222 
WAVCIS,ioos:station:WAVCIS:CSI15:1,2008-11-06T19:00:00Z,28.8332,-90.8320,1012.28,11111222 
WAVCIS,ioos:station:WAVCIS:CSI15:1,2008-11-06T20:00:00Z,28.8332,-90.8320,1011.7,11111222 
WAVCIS,ioos:station:WAVCIS:CSI15:1,2008-11-06T21:00:00Z,28.8332,-90.8320,1012.17,11111222 
WAVCIS,ioos:station:WAVCIS:CSI15:1,2008-11-06T22:00:00Z,28.8332,-90.8320,1012.42,11111222 
WAVCIS,ioos:station:WAVCIS:CSI15:1,2008-11-06T23:00:00Z,28.8332,-90.8320,1012.48,11111222 
WAVCIS,ioos:station:WAVCIS:CSI15:1,2008-11-07T00:00:00Z,28.8332,-90.8320,1012.38,11111222 
WAVCIS,ioos:station:WAVCIS:CSI15:1,2008-11-07T01:00:00Z,28.8332,-90.8320,1012.28,11111222 
WAVCIS,ioos:station:WAVCIS:CSI15:1,2008-11-07T02:00:00Z,28.8332,-90.8320,1012.33,11111222 
WAVCIS,ioos:station:WAVCIS:CSI15:1,2008-11-07T03:00:00Z,28.8332,-90.8320,1012.65,11111222 
WAVCIS,ioos:station:WAVCIS:CSI15:1,2008-11-07T04:00:00Z,28.8332,-90.8320,1012.94,11111222 
WAVCIS,ioos:station:WAVCIS:CSI15:1,2008-11-07T05:00:00Z,28.8332,-90.8320,1012.62,11111222 
WAVCIS,ioos:station:WAVCIS:CSI15:1,2008-11-07T06:00:00Z,28.8332,-90.8320,1012.23,11111222 
WAVCIS,ioos:station:WAVCIS:CSI15:1,2008-11-07T07:00:00Z,28.8332,-90.8320,1012.04,11111222 
WAVCIS,ioos:station:WAVCIS:CSI15:1,2008-11-07T08:00:00Z,28.8332,-90.8320,1011.62,11111222 
WAVCIS,ioos:station:WAVCIS:CSI15:1,2008-11-07T09:00:00Z,28.8332,-90.8320,1011.31,11111222 
WAVCIS,ioos:station:WAVCIS:CSI15:1,2008-11-07T10:00:00Z,28.8332,-90.8320,1011.19,11111222 
WAVCIS,ioos:station:WAVCIS:CSI15:1,2008-11-07T11:00:00Z,28.8332,-90.8320,1011.6,11111222 
WAVCIS,ioos:station:WAVCIS:CSI15:1,2008-11-07T12:00:00Z,28.8332,-90.8320,1011.78,11111222 
WAVCIS,ioos:station:WAVCIS:CSI15:1,2008-11-07T13:00:00Z,28.8332,-90.8320,1012.2,11111222 
WAVCIS,ioos:station:WAVCIS:CSI15:1,2008-11-07T14:00:00Z,28.8332,-90.8320,1012.39,11111222 
WAVCIS,ioos:station:WAVCIS:CSI15:1,2008-11-07T15:00:00Z,28.8332,-90.8320,1012.84,11111222 
WAVCIS,ioos:station:WAVCIS:CSI15:1,2008-11-07T16:00:00Z,28.8332,-90.8320,1013.27,11111222 
WAVCIS,ioos:station:WAVCIS:CSI15:1,2008-11-07T17:00:00Z,28.8332,-90.8320,1012.99,11111222 
WAVCIS,ioos:station:WAVCIS:CSI15:1,2008-11-07T18:00:00Z,28.8332,-90.8320,1012.67,11111222 
WAVCIS,ioos:station:WAVCIS:CSI15:1,2008-11-07T19:00:00Z,28.8332,-90.8320,1011.96,11111222 
WAVCIS,ioos:station:WAVCIS:CSI15:1,2008-11-07T20:00:00Z,28.8332,-90.8320,1011.91,11111222 
WAVCIS,ioos:station:WAVCIS:CSI15:1,2008-11-07T21:00:00Z,28.8332,-90.8320,1011.89,11111222 
WAVCIS,ioos:station:WAVCIS:CSI15:1,2008-11-07T22:00:00Z,28.8332,-90.8320,1011.85,11111222 
WAVCIS,ioos:station:WAVCIS:CSI15:1,2008-11-07T23:00:00Z,28.8332,-90.8320,1012.23,11111222 
WAVCIS,ioos:station:WAVCIS:CSI15:1,2008-11-08T00:00:00Z,28.8332,-90.8320,1012.72,11111222 
WAVCIS,ioos:station:WAVCIS:CSI15:1,2008-11-08T01:00:00Z,28.8332,-90.8320,1013.22,11111222 
WAVCIS,ioos:station:WAVCIS:CSI15:1,2008-11-08T02:00:00Z,28.8332,-90.8320,1013.56,11111222 
WAVCIS,ioos:station:WAVCIS:CSI15:1,2008-11-08T03:00:00Z,28.8332,-90.8320,1014.41,11111222 
WAVCIS,ioos:station:WAVCIS:CSI15:1,2008-11-08T04:00:00Z,28.8332,-90.8320,1014.6,11111222 
WAVCIS,ioos:station:WAVCIS:CSI15:1,2008-11-08T05:00:00Z,28.8332,-90.8320,1014.5,11111222 
WAVCIS,ioos:station:WAVCIS:CSI15:1,2008-11-08T06:00:00Z,28.8332,-90.8320,1014.24,11111222 
WAVCIS,ioos:station:WAVCIS:CSI15:1,2008-11-08T07:00:00Z,28.8332,-90.8320,1014.42,11111222 
WAVCIS,ioos:station:WAVCIS:CSI15:1,2008-11-08T08:00:00Z,28.8332,-90.8320,1013.85,11111222 
WAVCIS,ioos:station:WAVCIS:CSI15:1,2008-11-08T09:00:00Z,28.8332,-90.8320,1014.11,11111222 
WAVCIS,ioos:station:WAVCIS:CSI15:1,2008-11-08T10:00:00Z,28.8332,-90.8320,1013.96,11111222 
WAVCIS,ioos:station:WAVCIS:CSI15:1,2008-11-08T11:00:00Z,28.8332,-90.8320,1014.16,11111222 
WAVCIS,ioos:station:WAVCIS:CSI15:1,2008-11-08T12:00:00Z,28.8332,-90.8320,1014.3,11111222 
WAVCIS,ioos:station:WAVCIS:CSI15:1,2008-11-08T13:00:00Z,28.8332,-90.8320,1014.92,11111222 
WAVCIS,ioos:station:WAVCIS:CSI15:1,2008-11-08T14:00:00Z,28.8332,-90.8320,1015.58,11111222 
WAVCIS,ioos:station:WAVCIS:CSI15:1,2008-11-08T15:00:00Z,28.8332,-90.8320,1016.09,11111222 
WAVCIS,ioos:station:WAVCIS:CSI15:1,2008-11-08T16:00:00Z,28.8332,-90.8320,1015.97,11111222 
WAVCIS,ioos:station:WAVCIS:CSI15:1,2008-11-08T17:00:00Z,28.8332,-90.8320,1015.62,11111222 
WAVCIS,ioos:station:WAVCIS:CSI15:1,2008-11-08T18:00:00Z,28.8332,-90.8320,1014.96,11111222 
WAVCIS,ioos:station:WAVCIS:CSI15:1,2008-11-08T19:00:00Z,28.8332,-90.8320,1013.92,11111222 
WAVCIS,ioos:station:WAVCIS:CSI15:1,2008-11-08T20:00:00Z,28.8332,-90.8320,1013.37,11111222 
WAVCIS,ioos:station:WAVCIS:CSI15:1,2008-11-08T21:00:00Z,28.8332,-90.8320,1012.99,11111222 
WAVCIS,ioos:station:WAVCIS:CSI15:1,2008-11-08T22:00:00Z,28.8332,-90.8320,1012.89,11111222 
WAVCIS,ioos:station:WAVCIS:CSI15:1,2008-11-08T23:00:00Z,28.8332,-90.8320,1013.07,11111222 
WAVCIS,ioos:station:WAVCIS:CSI15:1,2008-11-09T00:00:00Z,28.8332,-90.8320,1013.23,11111222 
WAVCIS,ioos:station:WAVCIS:CSI15:1,2008-11-09T01:00:00Z,28.8332,-90.8320,1013.14,11111222 
WAVCIS,ioos:station:WAVCIS:CSI15:1,2008-11-09T02:00:00Z,28.8332,-90.8320,1013.29,11111222 
WAVCIS,ioos:station:WAVCIS:CSI15:1,2008-11-09T03:00:00Z,28.8332,-90.8320,1013.39,11111222 
WAVCIS,ioos:station:WAVCIS:CSI15:1,2008-11-09T04:00:00Z,28.8332,-90.8320,1013.54,11111222 
WAVCIS,ioos:station:WAVCIS:CSI15:1,2008-11-09T05:00:00Z,28.8332,-90.8320,1013.6,11111222 
WAVCIS,ioos:station:WAVCIS:CSI15:1,2008-11-09T06:00:00Z,28.8332,-90.8320,1013.3,11111222 
WAVCIS,ioos:station:WAVCIS:CSI15:1,2008-11-09T07:00:00Z,28.8332,-90.8320,1013.35,11111222 
WAVCIS,ioos:station:WAVCIS:CSI15:1,2008-11-09T08:00:00Z,28.8332,-90.8320,1013.14,11111222 
WAVCIS,ioos:station:WAVCIS:CSI15:1,2008-11-09T09:00:00Z,28.8332,-90.8320,1013.25,11111222 
WAVCIS,ioos:station:WAVCIS:CSI15:1,2008-11-09T10:00:00Z,28.8332,-90.8320,1013.49,11111222 
WAVCIS,ioos:station:WAVCIS:CSI15:1,2008-11-09T11:00:00Z,28.8332,-90.8320,1014.22,11111222 
WAVCIS,ioos:station:WAVCIS:CSI15:1,2008-11-09T12:00:00Z,28.8332,-90.8320,1014.74,11111222 
WAVCIS,ioos:station:WAVCIS:CSI15:1,2008-11-09T13:00:00Z,28.8332,-90.8320,1015.17,11111222 
WAVCIS,ioos:station:WAVCIS:CSI15:1,2008-11-09T14:00:00Z,28.8332,-90.8320,1015.57,11111222 
WAVCIS,ioos:station:WAVCIS:CSI15:1,2008-11-09T15:00:00Z,28.8332,-90.8320,1016.32,11111222 
WAVCIS,ioos:station:WAVCIS:CSI15:1,2008-11-09T16:00:00Z,28.8332,-90.8320,1016.53,11111222 
WAVCIS,ioos:station:WAVCIS:CSI15:1,2008-11-09T17:00:00Z,28.8332,-90.8320,1016.47,11111222 
WAVCIS,ioos:station:WAVCIS:CSI15:1,2008-11-09T18:00:00Z,28.8332,-90.8320,1015.96,11111222 
WAVCIS,ioos:station:WAVCIS:CSI15:1,2008-11-09T19:00:00Z,28.8332,-90.8320,1015.19,11111222 
WAVCIS,ioos:station:WAVCIS:CSI15:1,2008-11-09T20:00:00Z,28.8332,-90.8320,1014.7,11111222 
WAVCIS,ioos:station:WAVCIS:CSI15:1,2008-11-09T21:00:00Z,28.8332,-90.8320,1014.77,11111222 
WAVCIS,ioos:station:WAVCIS:CSI15:1,2008-11-09T22:00:00Z,28.8332,-90.8320,1014.77,11111222 
WAVCIS,ioos:station:WAVCIS:CSI15:1,2008-11-09T23:00:00Z,28.8332,-90.8320,1014.81,11111222 
WAVCIS,ioos:station:WAVCIS:CSI15:1,2008-11-10T00:00:00Z,28.8332,-90.8320,1014.99,11111222 
WAVCIS,ioos:station:WAVCIS:CSI15:1,2008-11-10T01:00:00Z,28.8332,-90.8320,1015.37,11111222 
WAVCIS,ioos:station:WAVCIS:CSI15:1,2008-11-10T02:00:00Z,28.8332,-90.8320,1015.98,11111222 
WAVCIS,ioos:station:WAVCIS:CSI15:1,2008-11-10T03:00:00Z,28.8332,-90.8320,1016.13,11111222 
WAVCIS,ioos:station:WAVCIS:CSI15:1,2008-11-10T04:00:00Z,28.8332,-90.8320,1016.45,11111222 
WAVCIS,ioos:station:WAVCIS:CSI15:1,2008-11-10T05:00:00Z,28.8332,-90.8320,1016.25,11111222 
WAVCIS,ioos:station:WAVCIS:CSI15:1,2008-11-10T06:00:00Z,28.8332,-90.8320,1016.0,11111222 
WAVCIS,ioos:station:WAVCIS:CSI15:1,2008-11-10T07:00:00Z,28.8332,-90.8320,1015.68,11111222 
WAVCIS,ioos:station:WAVCIS:CSI15:1,2008-11-10T08:00:00Z,28.8332,-90.8320,1015.51,11111222 
WAVCIS,ioos:station:WAVCIS:CSI15:1,2008-11-10T09:00:00Z,28.8332,-90.8320,1015.61,11111222 
WAVCIS,ioos:station:WAVCIS:CSI15:1,2008-11-10T10:00:00Z,28.8332,-90.8320,1015.69,11111222 
WAVCIS,ioos:station:WAVCIS:CSI15:1,2008-11-10T11:00:00Z,28.8332,-90.8320,1015.94,11111222 
WAVCIS,ioos:station:WAVCIS:CSI15:1,2008-11-10T12:00:00Z,28.8332,-90.8320,1016.06,11111222 
WAVCIS,ioos:station:WAVCIS:CSI15:1,2008-11-10T13:00:00Z,28.8332,-90.8320,1016.62,11111222 
WAVCIS,ioos:station:WAVCIS:CSI15:1,2008-11-10T14:00:00Z,28.8332,-90.8320,1016.99,11111222 
WAVCIS,ioos:station:WAVCIS:CSI15:1,2008-11-10T15:00:00Z,28.8332,-90.8320,1017.3,11111222 
WAVCIS,ioos:station:WAVCIS:CSI15:1,2008-11-10T16:00:00Z,28.8332,-90.8320,1017.23,11111222 
WAVCIS,ioos:station:WAVCIS:CSI15:1,2008-11-10T17:00:00Z,28.8332,-90.8320,1016.67,11111222 
WAVCIS,ioos:station:WAVCIS:CSI15:1,2008-11-10T18:00:00Z,28.8332,-90.8320,1016.01,11111222 
WAVCIS,ioos:station:WAVCIS:CSI15:1,2008-11-10T19:00:00Z,28.8332,-90.8320,1015.24,11111222 
WAVCIS,ioos:station:WAVCIS:CSI15:1,2008-11-10T20:00:00Z,28.8332,-90.8320,1015.06,11111222 
WAVCIS,ioos:station:WAVCIS:CSI15:1,2008-11-10T21:00:00Z,28.8332,-90.8320,1014.91,11111222 
WAVCIS,ioos:station:WAVCIS:CSI15:1,2008-11-10T22:00:00Z,28.8332,-90.8320,1014.65,11111222 
WAVCIS,ioos:station:WAVCIS:CSI15:1,2008-11-10T23:00:00Z,28.8332,-90.8320,1014.19,11111222 
WAVCIS,ioos:station:WAVCIS:CSI15:1,2008-11-11T00:00:00Z,28.8332,-90.8320,1014.63,11111222 
WAVCIS,ioos:station:WAVCIS:CSI15:1,2008-11-11T01:00:00Z,28.8332,-90.8320,1014.77,11111222 
WAVCIS,ioos:station:WAVCIS:CSI15:1,2008-11-11T02:00:00Z,28.8332,-90.8320,1015.24,11111222 
WAVCIS,ioos:station:WAVCIS:CSI15:1,2008-11-11T03:00:00Z,28.8332,-90.8320,1015.37,11111222 
WAVCIS,ioos:station:WAVCIS:CSI15:1,2008-11-11T04:00:00Z,28.8332,-90.8320,1015.45,11111222 
WAVCIS,ioos:station:WAVCIS:CSI15:1,2008-11-11T05:00:00Z,28.8332,-90.8320,1015.16,11111222 
WAVCIS,ioos:station:WAVCIS:CSI15:1,2008-11-11T06:00:00Z,28.8332,-90.8320,1014.92,11111222 
WAVCIS,ioos:station:WAVCIS:CSI15:1,2008-11-11T07:00:00Z,28.8332,-90.8320,1014.31,11111222 
WAVCIS,ioos:station:WAVCIS:CSI15:1,2008-11-11T08:00:00Z,28.8332,-90.8320,1013.94,11111222 
WAVCIS,ioos:station:WAVCIS:CSI15:1,2008-11-11T09:00:00Z,28.8332,-90.8320,1013.62,11111222 
WAVCIS,ioos:station:WAVCIS:CSI15:1,2008-11-11T10:00:00Z,28.8332,-90.8320,1013.72,11111222 
WAVCIS,ioos:station:WAVCIS:CSI15:1,2008-11-11T11:00:00Z,28.8332,-90.8320,1014.11,11111222 
WAVCIS,ioos:station:WAVCIS:CSI15:1,2008-11-11T12:00:00Z,28.8332,-90.8320,1014.43,11111222 
WAVCIS,ioos:station:WAVCIS:CSI15:1,2008-11-11T13:00:00Z,28.8332,-90.8320,1014.82,11111222 
WAVCIS,ioos:station:WAVCIS:CSI15:1,2008-11-11T14:00:00Z,28.8332,-90.8320,1014.94,11111222 
WAVCIS,ioos:station:WAVCIS:CSI15:1,2008-11-11T15:00:00Z,28.8332,-90.8320,1015.46,11111222 
WAVCIS,ioos:station:WAVCIS:CSI15:1,2008-11-11T16:00:00Z,28.8332,-90.8320,1015.32,11111222 
WAVCIS,ioos:station:WAVCIS:CSI15:1,2008-11-11T17:00:00Z,28.8332,-90.8320,1014.93,11111222 
WAVCIS,ioos:station:WAVCIS:CSI15:1,2008-11-11T18:00:00Z,28.8332,-90.8320,1014.11,11111222 
WAVCIS,ioos:station:WAVCIS:CSI15:1,2008-11-11T19:00:00Z,28.8332,-90.8320,1013.28,11111222 
WAVCIS,ioos:station:WAVCIS:CSI15:1,2008-11-11T20:00:00Z,28.8332,-90.8320,1012.57,11111222 
WAVCIS,ioos:station:WAVCIS:CSI15:1,2008-11-11T21:00:00Z,28.8332,-90.8320,1012.47,11111222 
WAVCIS,ioos:station:WAVCIS:CSI15:1,2008-11-11T22:00:00Z,28.8332,-90.8320,1012.24,11111222 